Terug naar catalogus

STARLINK-32127

ActiefCommunicatieVLEO
NORAD 60146·PAYLOAD·🇺🇸 United States

Gelanceerd Jun 27, 2024 vanaf Cape Canaveral Space Force Station

Loading…

Volgende Passages (komende 24 uur)

TLE

VersSource: CelesTrak SupGP

Epoch: Sep 15, 2026, 02:45 UTC

1 60146C 24120M   26258.11506944  .00022808  00000+0  67382-3 0  2585
2 60146  53.1574 156.6620 0001344  79.7760   7.9094 15.34381726    18

Volg STARLINK-32127 in realtime met AllMySat

Download on the App Store